CW6451 Weather Reports


Display with metric or nautical units.
time (UTC)temp
F
wind
direction
speed
MPH
gust
MPH
rain 1hr
in
rain 24hr
in
rain mn
in
humidity
%
barometer
mb
20180219235326 44 140 3.0 11.0 0.02 0.02 0.02 95 1027.8
20180219234840 44 177 4.0 11.0 0.02 0.02 0.02 95 1027.9
20180219234330 43 165 4.0 7.0 0.02 0.02 0.02 95 1028.0
20180219233830 43 144 3.0 7.0 0.01 0.01 0.01 94 1028.0
20180219233323 43 133 4.0 7.0 0.01 0.01 0.01 94 1028.1
20180219232844 43 126 4.0 7.0 0.01 0.01 0.01 94 1028.1
20180219232327 43 112 4.0 8.0 0.01 0.01 0.01 94 1028.1
20180219231839 44 114 5.0 8.0 0.01 0.01 0.01 93 1028.2
20180219231335 44 144 4.0 8.0 0.01 0.01 0.01 93 1028.2
20180219230840 44 122 4.0 8.0 0.01 0.01 0.01 93 1028.1
20180219230330 44 124 4.0 8.0 0.01 0.01 0.01 93 1028.1
20180219225839 44 140 3.0 6.0 0.00 0.00 0.00 93 1028.1
20180219225323 44 123 3.0 7.0 0.00 0.00 0.00 93 1028.0
20180219224830 44 111 3.0 7.0 0.00 0.00 0.00 93 1028.1
20180219224338 44 103 3.0 5.0 0.00 0.00 0.00 93 1028.2
20180219223849 44 145 3.0 7.0 0.00 0.00 0.00 93 1028.2
20180219223336 44 140 4.0 8.0 0.00 0.00 0.00 93 1028.3
20180219222828 44 128 3.0 8.0 0.00 0.00 0.00 92 1028.4
20180219222327 44 124 3.0 7.0 0.00 0.00 0.00 92 1028.6
20180219221840 44 123 3.0 7.0 0.00 0.00 0.00 91 1028.6
20180219221344 45 139 3.0 7.0 0.00 0.00 0.00 91 1028.6
20180219220844 45 167 4.0 8.0 0.00 0.00 0.00 91 1028.8
20180219220339 45 136 4.0 8.0 0.00 0.00 0.00 91 1028.7
20180219215844 45 133 4.0 10.0 0.00 0.00 0.00 90 1028.7
20180219215332 45 174 5.0 10.0 0.00 0.00 0.00 90 1028.8
20180219214848 45 149 6.0 11.0 0.00 0.00 0.00 89 1028.8
20180219214330 45 163 5.0 11.0 0.00 0.00 0.00 89 1028.8
20180219213836 45 188 5.0 10.0 0.00 0.00 0.00 89 1028.9
20180219213340 45 164 6.0 11.0 0.00 0.00 0.00 88 1028.8
20180219212842 46 165 5.0 11.0 0.00 0.00 0.00 88 1028.9
20180219212343 46 155 5.0 10.0 0.00 0.00 0.00 88 1029.1
20180219211834 46 167 3.0 5.0 0.00 0.00 0.00 87 1029.1
20180219211329 46 182 3.0 8.0 0.00 0.00 0.00 87 1029.1
20180219210847 46 137 4.0 9.0 0.00 0.00 0.00 86 1029.0
20180219210324 46 138 6.0 10.0 0.00 0.00 0.00 85 1028.8
20180219205833 46 126 5.0 10.0 0.00 0.00 0.00 85 1028.9
20180219205326 47 121 5.0 12.0 0.00 0.00 0.00 86 1028.9
20180219204845 47 134 6.0 14.0 0.00 0.00 0.00 86 1028.8
20180219204338 47 147 8.0 13.0 0.00 0.00 0.00 85 1028.8
20180219203850 47 188 5.0 12.0 0.00 0.00 0.00 85 1028.8
20180219203332 47 145 7.0 12.0 0.00 0.00 0.00 84 1029.0
20180219202841 47 190 7.0 12.0 0.00 0.00 0.00 84 1029.1
20180219202337 47 144 4.0 9.0 0.00 0.00 0.00 83 1029.1
20180219201847 47 180 4.0 11.0 0.00 0.00 0.00 83 1029.2
20180219201335 48 135 3.0 11.0 0.00 0.00 0.00 83 1029.0
20180219200840 48 157 5.0 10.0 0.00 0.00 0.00 82 1029.0
20180219200342 48 178 5.0 10.0 0.00 0.00 0.00 82 1028.9
20180219195841 48 158 7.0 16.0 0.00 0.00 0.00 82 1029.0
20180219195336 48 180 8.0 14.0 0.00 0.00 0.00 81 1029.1
20180219194845 48 173 7.0 15.0 0.00 0.00 0.00 80 1029.2
20180219194332 49 155 8.0 13.0 0.00 0.00 0.00 78 1029.1
20180219193845 49 175 6.0 13.0 0.00 0.00 0.00 79 1029.3
20180219193333 49 182 7.0 13.0 0.00 0.00 0.00 78 1029.4
20180219192836 49 174 7.0 13.0 0.00 0.00 0.00 78 1029.3
20180219192341 49 173 8.0 13.0 0.00 0.00 0.00 78 1029.3
20180219191833 49 123 8.0 16.0 0.00 0.00 0.00 79 1029.3
20180219191328 49 139 8.0 16.0 0.00 0.00 0.00 79 1029.5
20180219190843 48 167 9.0 14.0 0.00 0.00 0.00 79 1029.6
20180219190327 49 152 8.0 15.0 0.00 0.00 0.00 78 1029.7
20180219185849 49 184 9.0 17.0 0.00 0.00 0.00 78 1029.9
20180219185332 49 211 9.0 12.0 0.00 0.00 0.00 77 1029.9
20180219184843 49 194 6.0 14.0 0.00 0.00 0.00 79 1029.6
20180219184329 49 158 9.0 14.0 0.00 0.00 0.00 76 1029.6
20180219183845 49 177 9.0 17.0 0.00 0.00 0.00 77 1029.6
20180219183329 48 175 8.0 17.0 0.00 0.00 0.00 77 1029.9
20180219182838 49 202 9.0 15.0 0.00 0.00 0.00 76 1030.1
20180219182342 49 123 6.0 13.0 0.00 0.00 0.00 78 1030.2
20180219181830 49 178 6.0 13.0 0.00 0.00 0.00 77 1030.5
20180219181327 49 185 9.0 13.0 0.00 0.00 0.00 76 1030.8
20180219180826 49 136 8.0 14.0 0.00 0.00 0.00 76 1030.7
20180219180342 49 142 8.0 14.0 0.00 0.00 0.00 77 1030.6
20180219175833 48 183 9.0 15.0 0.00 0.00 0.00 77 1030.9
20180219175325 48 166 10.0 15.0 0.00 0.00 0.00 76 1030.9
20180219174839 49 130 7.0 13.0 0.00 0.00 0.00 78 1031.1
20180219174341 48 148 6.0 15.0 0.00 0.00 0.00 78 1031.3
20180219173834 48 168 8.0 15.0 0.00 0.00 0.00 78 1031.3
20180219173324 48 145 9.0 14.0 0.00 0.00 0.00 78 1031.5
20180219172840 47 123 6.0 13.0 0.00 0.00 0.00 78 1031.8
20180219172331 47 82 5.0 13.0 0.00 0.00 0.00 79 1032.1
20180219171837 47 188 6.0 11.0 0.00 0.00 0.00 80 1032.2
20180219171329 47 137 6.0 11.0 0.00 0.00 0.00 80 1032.3
20180219170838 47 153 5.0 11.0 0.00 0.00 0.00 80 1032.3
20180219170342 47 158 5.0 12.0 0.00 0.00 0.00 79 1032.5
20180219165844 47 169 7.0 12.0 0.00 0.01 0.00 78 1032.3
20180219165336 47 166 7.0 12.0 0.00 0.01 0.00 78 1032.3
20180219164840 47 111 5.0 13.0 0.00 0.01 0.00 80 1032.3
20180219164329 46 119 6.0 13.0 0.00 0.01 0.00 80 1032.3
20180219163832 46 151 7.0 14.0 0.00 0.01 0.00 79 1032.3
20180219163334 46 108 7.0 18.0 0.00 0.01 0.00 79 1032.3
20180219162846 46 158 10.0 18.0 0.00 0.01 0.00 79 1032.5
20180219162329 46 119 8.0 16.0 0.00 0.01 0.00 79 1032.5
20180219161835 46 139 9.0 15.0 0.00 0.01 0.00 78 1032.3
20180219161339 46 186 7.0 14.0 0.00 0.01 0.00 78 1032.5
20180219160828 46 150 8.0 16.0 0.00 0.01 0.00 77 1032.5
20180219160323 46 90 9.0 16.0 0.00 0.01 0.00 77 1032.7
20180219155841 46 107 9.0 14.0 0.00 0.07 0.00 77 1032.9
20180219155335 46 103 7.0 16.0 0.00 0.07 0.00 77 1033.0
20180219154842 46 144 8.0 14.0 0.00 0.07 0.00 78 1033.1
20180219154330 45 166 6.0 16.0 0.00 0.07 0.00 78 1033.4
20180219153831 45 118 8.0 16.0 0.00 0.07 0.00 78 1033.4
20180219153332 45 136 9.0 15.0 0.00 0.07 0.00 77 1033.6
20180219152843 45 142 8.0 15.0 0.00 0.07 0.00 77 1033.8
20180219152323 45 114 9.0 13.0 0.00 0.07 0.00 77 1033.7
20180219151842 45 130 7.0 12.0 0.00 0.07 0.00 77 1033.8
20180219151326 45 111 8.0 14.0 0.00 0.07 0.00 77 1033.7
20180219150839 44 171 7.0 14.0 0.00 0.07 0.00 78 1034.0
20180219150329 44 128 7.0 13.0 0.00 0.07 0.00 78 1034.1
20180219145844 44 128 9.0 14.0 0.00 0.14 0.00 77 1034.1
20180219145339 44 128 9.0 13.0 0.00 0.14 0.00 77 1034.2
20180219144835 44 115 9.0 14.0 0.00 0.14 0.00 77 1034.2
20180219144333 44 116 8.0 14.0 0.00 0.14 0.00 78 1034.2
20180219143833 43 120 7.0 12.0 0.00 0.14 0.00 79 1034.1
20180219143327 43 140 9.0 12.0 0.00 0.14 0.00 78 1034.1
20180219142841 43 111 9.0 12.0 0.00 0.14 0.00 79 1034.0
20180219142342 43 139 6.0 13.0 0.00 0.14 0.00 79 1034.1
20180219141831 43 113 8.0 13.0 0.00 0.14 0.00 80 1034.1
20180219141325 42 133 7.0 17.0 0.00 0.14 0.00 81 1033.9
20180219140836 42 117 9.0 17.0 0.00 0.14 0.00 80 1033.9
20180219140348 42 122 6.0 12.0 0.00 0.14 0.00 81 1033.9
20180219135840 42 142 7.0 13.0 0.00 0.19 0.00 81 1034.0
20180219135340 42 150 8.0 13.0 0.00 0.19 0.00 82 1034.0
20180219134844 42 103 7.0 12.0 0.00 0.19 0.00 83 1034.0
20180219134329 41 130 5.0 10.0 0.00 0.19 0.00 84 1034.2
20180219133845 41 129 6.0 10.0 0.00 0.19 0.00 85 1034.2
20180219133330 41 76 5.0 11.0 0.00 0.19 0.00 87 1034.2
20180219132842 40 124 5.0 11.0 0.00 0.19 0.00 88 1034.3
20180219132332 39 124 5.0 11.0 0.00 0.19 0.00 89 1034.3
20180219131847 39 131 5.0 11.0 0.00 0.19 0.00 92 1034.1
20180219131342 38 129 6.0 9.0 0.00 0.19 0.00 94 1034.3
20180219130850 37 140 4.0 9.0 0.00 0.19 0.00 95 1034.3
20180219130325 37 119 5.0 9.0 0.00 0.19 0.00 96 1034.4
20180219125842 35 127 4.0 9.0 0.00 0.20 0.00 96 1034.4
20180219125337 35 119 4.0 9.0 0.00 0.20 0.00 96 1034.3
20180219124835 34 105 4.0 8.0 0.00 0.20 0.00 96 1034.2
20180219124330 33 109 4.0 8.0 0.00 0.20 0.00 96 1034.2
20180219123834 32 124 3.0 6.0 0.00 0.20 0.00 96 1034.3
20180219123334 31 126 3.0 4.0 0.00 0.20 0.00 96 1034.2
20180219122848 30 74 3.0 4.0 0.00 0.20 0.00 95 1034.3
20180219122340 30 69 3.0 4.0 0.00 0.20 0.00 95 1034.4
20180219121837 29 68 2.0 3.0 0.00 0.20 0.00 95 1034.5
20180219121337 28 67 2.0 3.0 0.00 0.20 0.00 95 1034.5
20180219120846 28 66 2.0 3.0 0.00 0.20 0.00 94 1034.6
20180219120333 28 66 0.0 2.0 0.00 0.20 0.00 94 1034.7
20180219115841 28 65 1.0 2.0 0.00 0.21 0.00 94 1034.7
20180219115324 27 65 0.0 1.0 0.00 0.21 0.00 94 1034.7
20180219114830 27 65 0.0 2.0 0.00 0.21 0.00 94 1034.7
20180219114323 27 65 0.0 2.0 0.00 0.21 0.00 94 1034.5
20180219113836 27 65 0.0 1.0 0.00 0.21 0.00 94 1034.4
20180219113337 27 65 0.0 2.0 0.00 0.21 0.00 94 1034.6
20180219112846 27 65 0.0 3.0 0.00 0.21 0.00 94 1034.6
20180219112326 27 65 1.0 3.0 0.00 0.21 0.00 93 1034.6
20180219111845 27 65 1.0 3.0 0.00 0.21 0.00 93 1034.4
20180219111328 26 65 1.0 3.0 0.00 0.21 0.00 93 1034.5
20180219110846 26 64 0.0 2.0 0.00 0.21 0.00 93 1034.4
20180219110329 26 60 0.0 1.0 0.00 0.21 0.00 93 1034.4
20180219105841 26 60 0.0 2.0 0.00 0.23 0.00 93 1034.2
20180219105332 26 60 1.0 2.0 0.00 0.23 0.00 92 1034.1
20180219104834 26 45 1.0 2.0 0.00 0.23 0.00 92 1033.9
20180219104338 26 45 2.0 2.0 0.00 0.23 0.00 92 1033.9
20180219103844 26 44 1.0 2.0 0.00 0.23 0.00 92 1033.9
20180219103342 26 44 1.0 2.0 0.00 0.23 0.00 92 1033.9
20180219102827 26 44 1.0 2.0 0.00 0.23 0.00 92 1033.9
20180219102330 26 43 1.0 2.0 0.00 0.23 0.00 92 1034.0
20180219101845 26 36 0.0 1.0 0.00 0.23 0.00 91 1033.8
20180219101325 26 36 0.0 2.0 0.00 0.23 0.00 91 1033.8
20180219100847 26 36 1.0 2.0 0.00 0.23 0.00 91 1033.8
20180219100336 26 34 0.0 2.0 0.00 0.23 0.00 91 1033.8
20180219095822 26 32 1.0 2.0 0.00 0.27 0.00 91 1033.8
20180219095329 26 32 0.0 2.0 0.00 0.27 0.00 91 1033.9
20180219094833 26 32 0.0 1.0 0.00 0.27 0.00 91 1033.8
20180219094332 26 31 1.0 2.0 0.00 0.27 0.00 91 1033.8
20180219093834 26 31 1.0 3.0 0.00 0.27 0.00 91 1033.7
20180219093336 26 31 1.0 3.0 0.00 0.27 0.00 91 1033.6
20180219092845 26 30 0.0 2.0 0.00 0.27 0.00 91 1033.6
20180219092323 26 30 0.0 3.0 0.00 0.27 0.00 91 1033.7
20180219091332 26 30 1.0 1.0 0.00 0.27 0.00 91 1033.7
20180219090830 26 30 0.0 1.0 0.00 0.27 0.00 91 1033.6
20180219090328 26 30 0.0 1.0 0.00 0.27 0.00 91 1033.5
20180219085834 27 30 0.0 2.0 0.00 0.33 0.00 91 1033.5
20180219085333 27 29 1.0 2.0 0.00 0.33 0.00 91 1033.3
20180219084831 27 28 0.0 1.0 0.00 0.33 0.00 91 1033.3
20180219084333 27 28 0.0 2.0 0.00 0.33 0.00 90 1033.3
20180219083828 27 28 1.0 2.0 0.00 0.33 0.00 90 1033.4
20180219083325 27 24 0.0 2.0 0.00 0.33 0.00 90 1033.4
20180219082837 27 24 1.0 3.0 0.00 0.33 0.00 90 1033.3
20180219082322 27 22 1.0 3.0 0.00 0.33 0.00 90 1033.4
20180219081843 27 21 0.0 2.0 0.00 0.33 0.00 90 1033.5
20180219081341 27 21 1.0 2.0 0.00 0.33 0.00 89 1033.5
20180219080840 27 19 0.0 1.0 0.00 0.33 0.00 89 1033.4
20180219080340 27 19 0.0 2.0 0.00 0.33 0.00 89 1033.4
20180219075834 27 19 1.0 2.0 0.00 0.40 0.00 89 1033.4
20180219075337 28 19 0.0 2.0 0.00 0.40 0.00 89 1033.5
20180219074837 28 18 0.0 2.0 0.00 0.40 0.00 89 1033.4
20180219074332 28 17 0.0 2.0 0.00 0.40 0.00 89 1033.6
20180219073838 27 17 0.0 2.0 0.00 0.40 0.00 89 1033.7
20180219073333 27 17 0.0 2.0 0.00 0.40 0.00 89 1033.6
20180219072842 27 17 1.0 2.0 0.00 0.40 0.00 89 1033.7
20180219072337 27 16 0.0 0.0 0.00 0.40 0.00 89 1033.6
20180219071838 27 16 0.0 2.0 0.00 0.40 0.00 88 1033.6
20180219071340 28 16 0.0 2.0 0.00 0.40 0.00 88 1033.6
20180219070839 28 16 1.0 2.0 0.00 0.40 0.00 88 1033.4
20180219070328 28 13 0.0 3.0 0.00 0.40 0.00 87 1033.5
20180219065850 28 13 2.0 4.0 0.00 0.49 0.00 87 1033.5
20180219065342 28 20 1.0 4.0 0.00 0.49 0.00 87 1033.5
20180219064832 29 32 0.0 2.0 0.00 0.49 0.00 87 1033.4
20180219064342 29 31 1.0 2.0 0.00 0.49 0.00 87 1033.5
20180219063838 29 31 0.0 2.0 0.00 0.49 0.00 87 1033.5
20180219063324 29 30 0.0 2.0 0.00 0.49 0.00 87 1033.4
20180219062827 29 29 0.0 2.0 0.00 0.49 0.00 87 1033.4
20180219062333 29 29 1.0 2.0 0.00 0.49 0.00 87 1033.3
20180219061843 29 29 0.0 2.0 0.00 0.49 0.00 86 1033.4
20180219061325 29 29 0.0 2.0 0.00 0.49 0.00 86 1033.3
20180219060829 29 29 1.0 2.0 0.00 0.49 0.00 86 1033.3
20180219060340 29 26 1.0 3.0 0.00 0.49 0.00 87 1033.2
20180219055846 29 26 1.0 3.0 0.00 0.63 0.00 87 1033.4
20180219055325 29 26 1.0 5.0 0.00 0.63 0.00 87 1033.2
20180219054845 29 22 3.0 5.0 0.00 0.63 0.00 87 1033.0
20180219054342 29 31 2.0 3.0 0.00 0.63 0.00 87 1033.3
20180219053843 29 30 2.0 3.0 0.00 0.63 0.00 87 1033.5
20180219053339 29 25 2.0 3.0 0.00 0.63 0.00 86 1033.5
20180219052838 29 18 0.0 1.0 0.00 0.63 0.00 86 1033.7
20180219052341 30 13 0.0 2.0 0.00 0.63 0.00 86 1033.7
20180219051841 30 5 1.0 2.0 0.00 0.63 0.00 85 1033.7
20180219051336 30 5 0.0 2.0 0.00 0.63 0.00 85 1033.8
20180219050841 30 343 1.0 2.0 0.00 0.63 0.00 85 1033.8
20180219050325 30 334 1.0 2.0 0.00 0.63 0.00 85 1034.0
20180219045849 30 333 0.0 1.0 0.00 0.65 0.63 84 1034.0
20180219045335 30 333 0.0 1.0 0.00 0.65 0.63 83 1034.1
20180219044843 30 333 0.0 3.0 0.00 0.65 0.63 83 1033.9
20180219044338 30 333 2.0 3.0 0.00 0.65 0.63 82 1033.8
20180219043834 31 332 0.0 3.0 0.00 0.65 0.63 82 1033.9
20180219043332 31 332 0.0 3.0 0.00 0.65 0.63 81 1033.7
20180219042837 31 334 2.0 3.0 0.00 0.65 0.63 81 1033.8
20180219042342 31 335 0.0 2.0 0.00 0.65 0.63 80 1033.8
20180219041831 31 335 0.0 2.0 0.00 0.65 0.63 80 1033.6
20180219041331 32 335 1.0 3.0 0.00 0.65 0.63 79 1033.7
20180219040840 32 337 1.0 6.0 0.00 0.65 0.63 78 1033.5
20180219040325 32 312 4.0 6.0 0.00 0.65 0.63 78 1033.5
20180219035838 32 304 2.0 3.0 0.00 0.65 0.63 77 1033.6
20180219035340 32 304 2.0 4.0 0.00 0.65 0.63 77 1033.6
20180219034840 32 304 2.0 4.0 0.00 0.65 0.63 77 1033.5
20180219034328 33 304 2.0 6.0 0.00 0.65 0.63 77 1033.4
20180219033845 33 329 3.0 6.0 0.00 0.65 0.63 77 1033.3
20180219033324 33 327 3.0 6.0 0.00 0.65 0.63 78 1033.3
20180219032845 33 308 4.0 6.0 0.00 0.65 0.63 78 1033.1
20180219032340 33 322 3.0 5.0 0.00 0.65 0.63 78 1033.2
20180219031839 33 314 3.0 5.0 0.00 0.65 0.63 78 1033.0
20180219031341 33 319 3.0 5.0 0.00 0.65 0.63 78 1033.0
20180219030836 33 323 3.0 4.0 0.00 0.65 0.63 78 1033.0
20180219030334 33 306 2.0 3.0 0.00 0.65 0.63 77 1032.8
20180219025839 33 307 1.0 4.0 0.00 0.65 0.63 76 1032.7
20180219025338 33 307 2.0 4.0 0.00 0.65 0.63 76 1032.6
20180219024844 34 322 3.0 4.0 0.00 0.65 0.63 76 1032.6
20180219024342 34 324 3.0 4.0 0.00 0.65 0.63 75 1032.5
20180219023845 34 304 2.0 4.0 0.00 0.65 0.63 76 1032.3
20180219023330 34 314 3.0 5.0 0.00 0.65 0.63 76 1032.3
20180219022833 34 313 3.0 5.0 0.00 0.65 0.63 75 1032.1
20180219022334 34 305 2.0 4.0 0.00 0.65 0.63 75 1032.0
20180219021840 34 306 2.0 5.0 0.00 0.65 0.63 74 1032.1
20180219021340 35 302 3.0 5.0 0.00 0.65 0.63 74 1032.1
20180219020841 35 261 3.0 5.0 0.00 0.65 0.63 73 1032.2
20180219020324 35 276 2.0 3.0 0.00 0.65 0.63 72 1032.2
20180219015846 35 273 2.0 5.0 0.00 0.65 0.63 72 1032.3
20180219015339 36 282 3.0 8.0 0.00 0.65 0.63 72 1032.2
20180219014834 36 321 3.0 8.0 0.00 0.65 0.63 71 1032.3
20180219014334 36 259 3.0 6.0 0.00 0.65 0.63 71 1032.1
20180219013830 36 290 3.0 7.0 0.00 0.65 0.63 71 1032.2
20180219013334 36 270 3.0 9.0 0.00 0.65 0.63 71 1032.0
20180219012830 36 279 4.0 10.0 0.00 0.65 0.63 70 1031.9
20180219012325 36 252 5.0 10.0 0.00 0.65 0.63 71 1031.8
20180219011834 36 251 5.0 8.0 0.00 0.65 0.63 71 1031.7
20180219011332 36 258 4.0 9.0 0.00 0.65 0.63 71 1031.6
20180219010839 36 238 5.0 9.0 0.00 0.65 0.63 71 1031.4
20180219010349 37 236 2.0 9.0 0.00 0.65 0.63 71 1031.4
20180219005843 37 279 5.0 9.0 0.00 0.65 0.63 70 1031.1
20180219005332 37 246 1.0 4.0 0.00 0.65 0.63 70 1031.0
20180219004842 37 267 2.0 7.0 0.00 0.65 0.63 69 1031.0
20180219004323 37 256 3.0 8.0 0.00 0.65 0.63 69 1030.8
20180219003835 38 272 4.0 12.0 0.00 0.65 0.63 68 1030.5
20180219003335 38 280 6.0 12.0 0.00 0.65 0.63 68 1030.4
20180219002850 38 252 4.0 10.0 0.00 0.65 0.63 68 1030.4
20180219002329 38 260 5.0 10.0 0.00 0.65 0.63 67 1030.2
20180219001839 38 261 5.0 11.0 0.00 0.65 0.63 67 1030.1
20180219001329 38 240 6.0 11.0 0.00 0.65 0.63 67 1030.1
20180219000843 38 255 6.0 11.0 0.00 0.65 0.63 66 1030.1
20180219000339 38 244 5.0 11.0 0.00 0.65 0.63 66 1030.1
20180218235832 39 242 6.0 13.0 0.00 0.65 0.63 66 1030.1